Regional Weather Roundup
Issued by NWS Cleveland, OH

Home | Current Version | Previous Version | Graphics & Text | Print | Product List | Glossary On
Versions: 1 2 3 4 5 6 7 8 9 10 11 12 13 14 15 16 17 18 19 20 21 22 23 24 25 26 27 28 29 30 31 32 33 34 35 36 37 38 39 40 41 42 43 44 45 46 47 48 49 50
000
ASUS41 KCLE 230410
RWRCLE
OHIO REGIONAL WEATHER ROUNDUP
NATIONAL WEATHER SERVICE WILMINGTON, OH
1200 AM EDT THU OCT 23 2014

NOTE: "FAIR" INDICATES FEW OR NO CLOUDS BELOW 12,000 FEET WITH NO
SIGNIFICANT WEATHER AND/OR OBSTRUCTIONS TO VISIBILITY.

OHZ001>008-015>018-024>027-034-035-043-044-230500-
   NORTHWEST OHIO

CITY           SKY/WX    TMP DP  RH WIND       PRES   REMARKS
DEFIANCE       CLEAR     38  36  92 VRB3      30.29R
FINDLAY        CLOUDY    44  39  82 W5        30.26S
TOLEDO EXPRESS CLEAR     41  38  89 N3        30.27S
TOLEDO METCALF MOCLDY    43  38  82 NW5       30.28S
LIMA           CLOUDY    42  39  89 NW3       30.27S
$$

OHZ009>014-019>023-028>033-038-089-230500-
   NORTHEAST OHIO

CITY           SKY/WX    TMP DP  RH WIND       PRES   REMARKS
CLE-HOPKINS    CLOUDY    50  45  83 N7        30.25F
CLE-LAKEFRONT  CLOUDY    52  46  80 N15       30.22F
CUY CO. ARPT   NOT AVBL
LORAIN-ELYRIA  CLOUDY    48  43  82 N6        30.24F
ASHTABULA      CLOUDY    44  43  96 CALM      30.21F
AKRON-CANTON   CLOUDY    48  42  80 N6        30.21F
WOOSTER        MOCLDY    47  43  86 NW8       30.23S
MANSFIELD      CLOUDY    45  42  89 NW6       30.24S
YOUNGSTOWN     CLOUDY    44  41  89 NW5       30.19F
$$

OHZ042-051>053-060>062-070>072-077>081-230500-
  SOUTHWEST OHIO

CITY           SKY/WX    TMP DP  RH WIND       PRES   REMARKS
CINC-COVINGTON CLOUDY    49  39  68 E10       30.26S
CINC-LUNKEN    CLOUDY    48  40  73 E5        30.28F
HAMILTON       CLOUDY    48  40  73 NE3       30.28F
DAYTON         CLOUDY    46  39  76 CALM      30.27F
WRIGHT-PAT AFB CLOUDY    45  41  83 CALM      30.27S
DAYTON GENERAL CLOUDY    45  39  79 CALM      30.26S
WILMINGTON     CLOUDY    47  40  76 N6        30.25S
$$

OHZ036-037-039>041-045>050-054>059-063>069-073>076-082>088-230500-
  CENTRAL AND SOUTHEAST OHIO

CITY           SKY/WX    TMP DP  RH WIND       PRES   REMARKS
COLUMBUS       CLOUDY    49  41  74 CALM      30.24F
OSU AIRPORT    CLOUDY    48  41  76 NW6       30.25S
BOLTON FIELD   CLOUDY    47  42  83 NW3       30.25F
RICKENBACK AFB CLOUDY    48  42  80 NW3       30.24F
NEWARK         CLOUDY    48  42  80 CALM      30.23F
MARION         MOCLDY    44  40  85 NW7       30.25F
LANCASTER      CLOUDY    49  42  77 NW3       30.24F
ZANESVILLE     PTCLDY    45  39  79 NW5       30.22F
NEW PHILLY     CLOUDY    43  40  89 MISG      30.23S
$$



USA.gov is the U.S. government's official web portal to all federal, state and local government web resources and services.